| time (UTC) | temp F | wind direction | speed MPH | gust MPH | rain 1hr in | rain 24hr in | rain mn in | humidity % | barometer mb |
| 20260510223707 | 66 | 225 | 2.0 | 4.0 | 0.00 | 0.00 | 0.00 | 75 | 1012.3 |
| 20260510223207 | 66 | 248 | 2.0 | 7.0 | 0.00 | 0.00 | 0.00 | 75 | 1012.3 |
| 20260510222707 | 66 | 180 | 1.0 | 11.0 | 0.00 | 0.00 | 0.00 | 75 | 1012.1 |
| 20260510222207 | 66 | 180 | 2.0 | 11.0 | 0.00 | 0.00 | 0.00 | 76 | 1012.1 |
| 20260510221707 | 67 | 248 | 4.0 | 11.0 | 0.00 | 0.00 | 0.00 | 76 | 1011.9 |
| 20260510221207 | 67 | 225 | 5.0 | 13.0 | 0.00 | 0.00 | 0.00 | 76 | 1011.9 |
| 20260510220707 | 67 | 225 | 5.0 | 13.0 | 0.00 | 0.00 | 0.00 | 76 | 1011.9 |
| 20260510220208 | 68 | 203 | 4.0 | 13.0 | 0.00 | 0.00 | 0.00 | 69 | 1011.6 |
| 20260510215708 | 69 | 248 | 7.0 | 11.0 | 0.00 | 0.00 | 0.00 | 69 | 1012.0 |
| 20260510215208 | 69 | 248 | 5.0 | 11.0 | 0.00 | 0.00 | 0.00 | 69 | 1011.7 |
| 20260510214708 | 69 | 248 | 7.0 | 11.0 | 0.00 | 0.00 | 0.00 | 68 | 1011.7 |
| 20260510214207 | 69 | 225 | 7.0 | 16.0 | 0.00 | 0.00 | 0.00 | 68 | 1011.7 |
| 20260510213707 | 69 | 270 | 8.0 | 17.0 | 0.00 | 0.00 | 0.00 | 68 | 1011.7 |
| 20260510213207 | 69 | 225 | 4.0 | 20.0 | 0.00 | 0.00 | 0.00 | 66 | 1011.9 |
| 20260510212708 | 70 | 270 | 5.0 | 21.0 | 0.00 | 0.00 | 0.00 | 64 | 1011.3 |
| 20260510212208 | 70 | 248 | 8.0 | 21.0 | 0.00 | 0.00 | 0.00 | 63 | 1011.7 |
| 20260510211708 | 70 | 158 | 12.0 | 21.0 | 0.00 | 0.00 | 0.00 | 62 | 1011.5 |
| 20260510211208 | 70 | 248 | 13.0 | 18.0 | 0.00 | 0.00 | 0.00 | 63 | 1011.4 |
| 20260510210708 | 70 | 248 | 13.0 | 18.0 | 0.00 | 0.00 | 0.00 | 63 | 1011.3 |
| 20260510210207 | 69 | 225 | 11.0 | 21.0 | 0.00 | 0.00 | 0.00 | 67 | 1011.4 |
| 20260510205707 | 68 | 203 | 9.0 | 21.0 | 0.00 | 0.00 | 0.00 | 73 | 1011.6 |
| 20260510205208 | 69 | 225 | 13.0 | 23.0 | 0.00 | 0.00 | 0.00 | 70 | 1011.5 |
| 20260510203708 | 69 | 248 | 12.0 | 23.0 | 0.00 | 0.00 | 0.00 | 68 | 1011.3 |
| 20260510203208 | 69 | 225 | 11.0 | 23.0 | 0.00 | 0.00 | 0.00 | 68 | 1011.4 |
| 20260510202708 | 69 | 248 | 15.0 | 23.0 | 0.00 | 0.00 | 0.00 | 67 | 1011.3 |
| 20260510202207 | 68 | 225 | 13.0 | 24.0 | 0.00 | 0.00 | 0.00 | 72 | 1011.3 |
| 20260510201707 | 69 | 248 | 11.0 | 24.0 | 0.00 | 0.00 | 0.00 | 69 | 1011.0 |
| 20260510201207 | 69 | 248 | 12.0 | 24.0 | 0.00 | 0.00 | 0.00 | 67 | 1011.1 |
| 20260510200707 | 69 | 225 | 13.0 | 21.0 | 0.00 | 0.00 | 0.00 | 68 | 1010.9 |
| 20260510195708 | 68 | 225 | 12.0 | 21.0 | 0.00 | 0.00 | 0.00 | 73 | 1010.9 |
| 20260510195208 | 68 | 203 | 11.0 | 21.0 | 0.00 | 0.00 | 0.00 | 72 | 1010.8 |
| 20260510194707 | 68 | 203 | 13.0 | 23.0 | 0.00 | 0.00 | 0.00 | 71 | 1010.9 |
| 20260510194208 | 68 | 225 | 12.0 | 27.0 | 0.00 | 0.00 | 0.00 | 69 | 1010.6 |
| 20260510193707 | 68 | 225 | 15.0 | 27.0 | 0.00 | 0.00 | 0.00 | 68 | 1010.7 |
| 20260510193208 | 69 | 225 | 10.0 | 27.0 | 0.00 | 0.00 | 0.00 | 68 | 1010.7 |
| 20260510192708 | 69 | 248 | 15.0 | 29.0 | 0.00 | 0.00 | 0.00 | 68 | 1010.7 |
| 20260510192208 | 69 | 203 | 15.0 | 29.0 | 0.00 | 0.00 | 0.00 | 66 | 1010.7 |
| 20260510191708 | 69 | 203 | 17.0 | 29.0 | 0.00 | 0.00 | 0.00 | 66 | 1010.6 |
| 20260510191208 | 69 | 180 | 17.0 | 24.0 | 0.00 | 0.00 | 0.00 | 67 | 1010.4 |
| 20260510190708 | 68 | 225 | 13.0 | 24.0 | 0.00 | 0.00 | 0.00 | 69 | 1010.7 |
| 20260510190208 | 68 | 248 | 13.0 | 25.0 | 0.00 | 0.00 | 0.00 | 68 | 1010.4 |
| 20260510185708 | 68 | 248 | 15.0 | 25.0 | 0.00 | 0.00 | 0.00 | 68 | 1010.4 |
| 20260510184708 | 68 | 203 | 15.0 | 24.0 | 0.00 | 0.00 | 0.00 | 68 | 1010.5 |
| 20260510184208 | 68 | 203 | 11.0 | 24.0 | 0.00 | 0.00 | 0.00 | 70 | 1010.4 |
| 20260510183708 | 68 | 248 | 15.0 | 20.0 | 0.00 | 0.00 | 0.00 | 70 | 1010.5 |
| 20260510183208 | 68 | 203 | 12.0 | 17.0 | 0.00 | 0.00 | 0.00 | 72 | 1010.4 |
| 20260510182707 | 68 | 203 | 11.0 | 18.0 | 0.00 | 0.00 | 0.00 | 72 | 1010.3 |
| 20260510182207 | 68 | 225 | 13.0 | 18.0 | 0.00 | 0.00 | 0.00 | 72 | 1010.4 |
| 20260510181708 | 68 | 248 | 11.0 | 18.0 | 0.00 | 0.00 | 0.00 | 72 | 1010.5 |
| 20260510181208 | 68 | 225 | 12.0 | 20.0 | 0.00 | 0.00 | 0.00 | 71 | 1010.5 |
| 20260510180708 | 69 | 248 | 13.0 | 23.0 | 0.00 | 0.00 | 0.00 | 71 | 1010.5 |
| 20260510175207 | 69 | 225 | 9.0 | 23.0 | 0.00 | 0.00 | 0.00 | 68 | 1010.2 |
| 20260510174707 | 69 | 248 | 11.0 | 23.0 | 0.00 | 0.00 | 0.00 | 67 | 1010.2 |
| 20260510174207 | 70 | 225 | 15.0 | 20.0 | 0.00 | 0.00 | 0.00 | 65 | 1010.8 |
| 20260510173707 | 70 | 203 | 7.0 | 22.0 | 0.00 | 0.00 | 0.00 | 64 | 1010.9 |
| 20260510173207 | 70 | 225 | 13.0 | 22.0 | 0.00 | 0.00 | 0.00 | 64 | 1010.8 |
| 20260510172207 | 71 | 203 | 9.0 | 22.0 | 0.00 | 0.00 | 0.00 | 61 | 1010.9 |
| 20260510171707 | 71 | 203 | 8.0 | 22.0 | 0.00 | 0.00 | 0.00 | 62 | 1010.7 |
| 20260510171207 | 71 | 225 | 10.0 | 22.0 | 0.00 | 0.00 | 0.00 | 60 | 1010.8 |
| 20260510170707 | 72 | 225 | 7.0 | 21.0 | 0.00 | 0.00 | 0.00 | 59 | 1010.8 |
| 20260510165708 | 71 | 180 | 10.0 | 17.0 | 0.00 | 0.00 | 0.00 | 61 | 1010.7 |
| 20260510165208 | 71 | 270 | 10.0 | 22.0 | 0.00 | 0.00 | 0.00 | 62 | 1010.7 |
| 20260510163708 | 71 | 158 | 8.0 | 18.0 | 0.00 | 0.00 | 0.00 | 63 | 1010.9 |
| 20260510163208 | 71 | 225 | 8.0 | 18.0 | 0.00 | 0.00 | 0.00 | 63 | 1010.6 |
| 20260510162708 | 71 | 203 | 8.0 | 20.0 | 0.00 | 0.00 | 0.00 | 63 | 1010.8 |
| 20260510162208 | 71 | 180 | 8.0 | 20.0 | 0.00 | 0.00 | 0.00 | 64 | 1010.8 |
| 20260510161707 | 71 | 203 | 6.0 | 18.0 | 0.00 | 0.00 | 0.00 | 64 | 1011.0 |
| 20260510161207 | 72 | 203 | 6.0 | 22.0 | 0.00 | 0.00 | 0.00 | 64 | 1011.0 |
| 20260510160707 | 71 | 248 | 10.0 | 22.0 | 0.00 | 0.00 | 0.00 | 63 | 1011.4 |
| 20260510160208 | 71 | 293 | 10.0 | 17.0 | 0.00 | 0.00 | 0.00 | 61 | 1011.0 |
| 20260510155208 | 72 | 248 | 9.0 | 21.0 | 0.00 | 0.00 | 0.00 | 61 | 1011.1 |
| 20260510154208 | 72 | 225 | 11.0 | 21.0 | 0.00 | 0.00 | 0.00 | 64 | 1011.1 |
| 20260510153708 | 71 | 248 | 13.0 | 18.0 | 0.00 | 0.00 | 0.00 | 65 | 1011.1 |
| 20260510153208 | 71 | 203 | 12.0 | 20.0 | 0.00 | 0.00 | 0.00 | 63 | 1011.0 |
| 20260510152208 | 72 | 225 | 11.0 | 20.0 | 0.00 | 0.00 | 0.00 | 62 | 1010.9 |
| 20260510151707 | 72 | 248 | 13.0 | 17.0 | 0.00 | 0.00 | 0.00 | 62 | 1011.2 |
| 20260510151208 | 72 | 225 | 9.0 | 17.0 | 0.00 | 0.00 | 0.00 | 63 | 1011.3 |
| 20260510150708 | 73 | 203 | 8.0 | 17.0 | 0.00 | 0.00 | 0.00 | 64 | 1011.2 |
| 20260510150208 | 72 | 225 | 8.0 | 18.0 | 0.00 | 0.00 | 0.00 | 65 | 1011.4 |
| 20260510145708 | 71 | 203 | 8.0 | 18.0 | 0.00 | 0.00 | 0.00 | 66 | 1011.6 |
| 20260510145208 | 71 | 225 | 9.0 | 18.0 | 0.00 | 0.00 | 0.00 | 66 | 1011.5 |
| 20260510144708 | 71 | 203 | 10.0 | 16.0 | 0.00 | 0.00 | 0.00 | 65 | 1011.6 |
| 20260510143708 | 73 | 248 | 8.0 | 16.0 | 0.00 | 0.00 | 0.00 | 65 | 1011.7 |
| 20260510143208 | 72 | 203 | 8.0 | 18.0 | 0.00 | 0.00 | 0.00 | 65 | 1011.6 |
| 20260510142719 | 71 | 203 | 11.0 | 18.0 | 0.00 | 0.00 | 0.00 | 65 | 1011.8 |
| 20260510142208 | 71 | 203 | 10.0 | 18.0 | 0.00 | 0.00 | 0.00 | 65 | 1011.8 |
| 20260510141708 | 71 | 203 | 10.0 | 16.0 | 0.00 | 0.00 | 0.00 | 65 | 1011.7 |
| 20260510141209 | 71 | 203 | 8.0 | 16.0 | 0.00 | 0.00 | 0.00 | 65 | 1011.9 |
| 20260510140710 | 72 | 180 | 9.0 | 14.0 | 0.00 | 0.00 | 0.00 | 65 | 1012.1 |
| 20260510140207 | 72 | 225 | 9.0 | 14.0 | 0.00 | 0.00 | 0.00 | 66 | 1012.2 |
| 20260510135711 | 71 | 180 | 7.0 | 16.0 | 0.00 | 0.00 | 0.00 | 67 | 1012.1 |
| 20260510135207 | 71 | 203 | 7.0 | 16.0 | 0.00 | 0.00 | 0.00 | 68 | 1012.1 |
| 20260510134714 | 71 | 203 | 8.0 | 14.0 | 0.00 | 0.00 | 0.00 | 68 | 1012.1 |
| 20260510134208 | 71 | 225 | 7.0 | 14.0 | 0.00 | 0.00 | 0.00 | 70 | 1012.4 |
| 20260510133711 | 71 | 180 | 11.0 | 14.0 | 0.00 | 0.00 | 0.00 | 69 | 1012.4 |
| 20260510133208 | 71 | 225 | 8.0 | 15.0 | 0.00 | 0.00 | 0.00 | 69 | 1012.5 |
| 20260510132707 | 71 | 225 | 11.0 | 17.0 | 0.00 | 0.00 | 0.00 | 68 | 1012.3 |
| 20260510132207 | 71 | 180 | 8.0 | 17.0 | 0.00 | 0.00 | 0.00 | 71 | 1012.4 |
| 20260510131708 | 71 | 225 | 6.0 | 18.0 | 0.00 | 0.00 | 0.00 | 70 | 1012.6 |
| 20260510131208 | 71 | 225 | 9.0 | 18.0 | 0.00 | 0.00 | 0.00 | 70 | 1012.6 |
| 20260510130708 | 70 | 225 | 8.0 | 16.0 | 0.00 | 0.00 | 0.00 | 71 | 1012.5 |
| 20260510130208 | 70 | 203 | 11.0 | 16.0 | 0.00 | 0.00 | 0.00 | 70 | 1012.7 |
| 20260510125708 | 70 | 225 | 9.0 | 15.0 | 0.00 | 0.00 | 0.00 | 72 | 1012.8 |
| 20260510125208 | 70 | 225 | 8.0 | 17.0 | 0.00 | 0.00 | 0.00 | 72 | 1012.8 |
| 20260510124712 | 70 | 225 | 9.0 | 17.0 | 0.00 | 0.00 | 0.00 | 72 | 1012.8 |
| 20260510124208 | 70 | 203 | 8.0 | 17.0 | 0.00 | 0.00 | 0.00 | 70 | 1013.0 |
| 20260510123729 | 71 | 248 | 9.0 | 16.0 | 0.00 | 0.00 | 0.00 | 71 | 1013.0 |
| 20260510123208 | 70 | 203 | 8.0 | 16.0 | 0.00 | 0.00 | 0.00 | 71 | 1013.1 |
| 20260510122708 | 71 | 203 | 10.0 | 16.0 | 0.00 | 0.00 | 0.00 | 71 | 1013.2 |
| 20260510121207 | 71 | 248 | 6.0 | 21.0 | 0.00 | 0.00 | 0.00 | 74 | 1013.4 |
| 20260510120707 | 71 | 158 | 6.0 | 21.0 | 0.00 | 0.00 | 0.00 | 73 | 1013.0 |
| 20260510120208 | 69 | 203 | 12.0 | 18.0 | 0.00 | 0.00 | 0.00 | 73 | 1013.0 |
| 20260510115708 | 70 | 248 | 12.0 | 18.0 | 0.00 | 0.00 | 0.00 | 73 | 1013.4 |
| 20260510114708 | 70 | 248 | 9.0 | 18.0 | 0.00 | 0.01 | 0.00 | 74 | 1013.3 |
| 20260510114208 | 69 | 225 | 13.0 | 18.0 | 0.00 | 0.01 | 0.00 | 75 | 1013.4 |
| 20260510113708 | 69 | 203 | 11.0 | 17.0 | 0.00 | 0.01 | 0.00 | 75 | 1013.4 |
| 20260510113208 | 70 | 180 | 10.0 | 17.0 | 0.00 | 0.01 | 0.00 | 74 | 1013.3 |
| 20260510112208 | 70 | 180 | 8.0 | 16.0 | 0.00 | 0.04 | 0.00 | 73 | 1013.6 |
| 20260510111707 | 70 | 225 | 8.0 | 16.0 | 0.00 | 0.04 | 0.00 | 73 | 1013.6 |
| 20260510111208 | 70 | 248 | 10.0 | 16.0 | 0.00 | 0.05 | 0.00 | 72 | 1013.4 |
| 20260510110208 | 70 | 180 | 8.0 | 20.0 | 0.00 | 0.05 | 0.00 | 72 | 1013.5 |
| 20260510105708 | 70 | 203 | 10.0 | 20.0 | 0.00 | 0.06 | 0.00 | 73 | 1013.8 |
| 20260510105208 | 70 | 248 | 11.0 | 20.0 | 0.00 | 0.06 | 0.00 | 73 | 1014.1 |
| 20260510104708 | 70 | 225 | 7.0 | 20.0 | 0.00 | 0.06 | 0.00 | 73 | 1014.0 |
| 20260510104207 | 69 | 225 | 11.0 | 18.0 | 0.00 | 0.06 | 0.00 | 72 | 1014.1 |
| 20260510103707 | 69 | 225 | 11.0 | 18.0 | 0.00 | 0.06 | 0.00 | 72 | 1013.9 |
| 20260510103207 | 70 | 225 | 11.0 | 18.0 | 0.00 | 0.06 | 0.00 | 72 | 1014.0 |
| 20260510102208 | 70 | 203 | 9.0 | 16.0 | 0.00 | 0.06 | 0.00 | 73 | 1014.0 |
| 20260510101707 | 70 | 180 | 5.0 | 16.0 | 0.00 | 0.07 | 0.00 | 73 | 1013.9 |
| 20260510101208 | 70 | 203 | 8.0 | 16.0 | 0.00 | 0.07 | 0.00 | 73 | 1013.8 |
| 20260510100708 | 70 | 180 | 12.0 | 14.0 | 0.00 | 0.07 | 0.00 | 71 | 1013.8 |
| 20260510095707 | 71 | 203 | 6.0 | 8.0 | 0.00 | 0.08 | 0.00 | 68 | 1013.8 |
| 20260510094708 | 69 | 113 | 4.0 | 9.0 | 0.00 | 0.11 | 0.00 | 77 | 1014.0 |
| 20260510094207 | 70 | 90 | 4.0 | 9.0 | 0.00 | 0.11 | 0.00 | 78 | 1013.8 |
| 20260510093707 | 70 | 68 | 6.0 | 8.0 | 0.00 | 0.11 | 0.00 | 78 | 1013.7 |
| 20260510092708 | 68 | 45 | 4.0 | 6.0 | 0.00 | 0.11 | 0.00 | 79 | 1013.9 |
| 20260510092208 | 69 | 45 | 3.0 | 7.0 | 0.00 | 0.11 | 0.00 | 79 | 1013.9 |
| 20260510091708 | 69 | 90 | 2.0 | 8.0 | 0.00 | 0.11 | 0.00 | 80 | 1014.0 |
| 20260510091208 | 69 | 68 | 3.0 | 8.0 | 0.00 | 0.12 | 0.00 | 79 | 1013.8 |
| 20260510090208 | 69 | 90 | 4.0 | 6.0 | 0.00 | 0.22 | 0.00 | 79 | 1013.8 |
| 20260510085208 | 69 | 45 | 3.0 | 4.0 | 0.00 | 0.25 | 0.00 | 78 | 1014.0 |
| 20260510084708 | 69 | 68 | 2.0 | 6.0 | 0.00 | 0.31 | 0.00 | 79 | 1014.1 |
| 20260510084207 | 67 | 0 | 3.0 | 6.0 | 0.00 | 0.31 | 0.00 | 80 | 1013.7 |
| 20260510083708 | 67 | 0 | 2.0 | 6.0 | 0.00 | 0.31 | 0.00 | 82 | 1013.9 |
| 20260510083208 | 66 | 338 | 2.0 | 7.0 | 0.00 | 0.31 | 0.00 | 82 | 1013.8 |
| 20260510082708 | 66 | 23 | 3.0 | 8.0 | 0.00 | 0.31 | 0.00 | 83 | 1014.0 |
| 20260510082208 | 66 | 0 | 4.0 | 8.0 | 0.00 | 0.31 | 0.00 | 83 | 1013.8 |
| 20260510081708 | 66 | 0 | 4.0 | 8.0 | 0.00 | 0.31 | 0.00 | 84 | 1013.7 |
| 20260510081208 | 66 | 23 | 4.0 | 8.0 | 0.00 | 0.31 | 0.00 | 84 | 1013.9 |
| 20260510080708 | 66 | 338 | 4.0 | 8.0 | 0.00 | 0.31 | 0.00 | 84 | 1013.9 |
| 20260510080208 | 66 | 23 | 5.0 | 8.0 | 0.00 | 0.31 | 0.00 | 84 | 1013.9 |
| 20260510075708 | 65 | 338 | 4.0 | 8.0 | 0.00 | 0.31 | 0.00 | 83 | 1013.8 |
| 20260510075208 | 66 | 0 | 3.0 | 8.0 | 0.00 | 0.31 | 0.00 | 83 | 1013.9 |
| 20260510074708 | 66 | 23 | 5.0 | 6.0 | 0.00 | 0.31 | 0.00 | 83 | 1013.9 |
| 20260510073707 | 66 | 23 | 2.0 | 6.0 | 0.00 | 0.31 | 0.00 | 83 | 1013.9 |
| 20260510073209 | 66 | 0 | 3.0 | 6.0 | 0.00 | 0.31 | 0.00 | 83 | 1014.0 |
| 20260510072708 | 66 | 338 | 4.0 | 6.0 | 0.00 | 0.31 | 0.00 | 82 | 1014.0 |
| 20260510072208 | 66 | 338 | 4.0 | 4.0 | 0.00 | 0.31 | 0.00 | 82 | 1014.0 |
| 20260510071708 | 66 | 23 | 2.0 | 4.0 | 0.00 | 0.31 | 0.00 | 82 | 1014.0 |
| 20260510071208 | 67 | 0 | 2.0 | 4.0 | 0.00 | 0.31 | 0.00 | 82 | 1013.8 |
| 20260510070708 | 66 | 23 | 2.0 | 4.0 | 0.00 | 0.31 | 0.00 | 83 | 1014.0 |
| 20260510070208 | 65 | 293 | 1.0 | 4.0 | 0.00 | 0.32 | 0.00 | 84 | 1013.9 |
| 20260510065708 | 65 | 23 | 1.0 | 4.0 | 0.00 | 0.33 | 0.00 | 85 | 1013.8 |
| 20260510064708 | 64 | 23 | 1.0 | 2.0 | 0.00 | 0.37 | 0.00 | 85 | 1013.5 |
| 20260510064208 | 64 | 45 | 1.0 | 2.0 | 0.00 | 0.37 | 0.00 | 87 | 1013.5 |
| 20260510063708 | 64 | 45 | 0.0 | 2.0 | 0.00 | 0.37 | 0.00 | 87 | 1013.7 |
| 20260510063208 | 63 | 23 | 0.0 | 2.0 | 0.00 | 0.37 | 0.00 | 88 | 1013.7 |
| 20260510062209 | 62 | 338 | 1.0 | 2.0 | 0.00 | 0.37 | 0.00 | 89 | 1013.5 |
| 20260510061708 | 62 | 293 | 1.0 | 2.0 | 0.00 | 0.37 | 0.00 | 89 | 1013.6 |
| 20260510060708 | 61 | 315 | 2.0 | 0.0 | 0.00 | 0.37 | 0.00 | 89 | 1013.5 |
| 20260510060208 | 61 | 225 | 0.0 | 0.0 | 0.00 | 0.37 | 0.00 | 90 | 1013.6 |
| 20260510055708 | 61 | 225 | 0.0 | 0.0 | 0.00 | 0.37 | 0.00 | 90 | 1013.4 |
| 20260510055207 | 60 | 248 | 0.0 | 0.0 | 0.00 | 0.37 | 0.00 | 90 | 1013.5 |
| 20260510054707 | 60 | 225 | 0.0 | 0.0 | 0.00 | 0.37 | 0.00 | 90 | 1013.2 |
| 20260510054208 | 59 | 225 | 0.0 | 2.0 | 0.00 | 0.37 | 0.00 | 90 | 1013.3 |
| 20260510053708 | 59 | 203 | 0.0 | 2.0 | 0.00 | 0.37 | 0.00 | 90 | 1013.5 |
| 20260510053208 | 58 | 203 | 0.0 | 2.0 | 0.00 | 0.37 | 0.00 | 90 | 1013.5 |
| 20260510052708 | 58 | 180 | 0.0 | 2.0 | 0.00 | 0.37 | 0.00 | 90 | 1013.3 |
| 20260510052208 | 58 | 203 | 0.0 | 2.0 | 0.00 | 0.37 | 0.00 | 90 | 1013.1 |
| 20260510051708 | 58 | 248 | 1.0 | 2.0 | 0.00 | 0.37 | 0.00 | 90 | 1013.6 |
| 20260510051208 | 58 | 225 | 1.0 | 2.0 | 0.00 | 0.37 | 0.00 | 90 | 1013.4 |
| 20260510050708 | 58 | 248 | 1.0 | 2.0 | 0.00 | 0.37 | 0.00 | 90 | 1013.2 |
| 20260510050207 | 58 | 270 | 1.0 | 2.0 | 0.00 | 0.37 | 0.00 | 89 | 1013.4 |
| 20260510045707 | 58 | 248 | 0.0 | 6.0 | 0.00 | 0.37 | 0.00 | 89 | 1013.2 |
| 20260510045208 | 59 | 315 | 2.0 | 6.0 | 0.00 | 0.37 | 0.00 | 89 | 1013.2 |
| 20260510044207 | 60 | 270 | 3.0 | 6.0 | 0.00 | 0.37 | 0.00 | 88 | 1013.3 |
| 20260510043707 | 60 | 338 | 4.0 | 6.0 | 0.00 | 0.37 | 0.00 | 88 | 1013.1 |
| 20260510043208 | 62 | 315 | 2.0 | 4.0 | 0.00 | 0.37 | 0.00 | 88 | 1013.1 |
| 20260510042208 | 62 | 293 | 2.0 | 4.0 | 0.00 | 0.37 | 0.00 | 87 | 1013.1 |
| 20260510041708 | 62 | 293 | 2.0 | 4.0 | 0.00 | 0.37 | 0.00 | 87 | 1013.0 |
| 20260510041207 | 64 | 270 | 2.0 | 7.0 | 0.00 | 0.37 | 0.00 | 86 | 1013.2 |
| 20260510040708 | 64 | 248 | 2.0 | 8.0 | 0.00 | 0.37 | 0.00 | 86 | 1012.9 |
| 20260510040208 | 64 | 225 | 2.0 | 8.0 | 0.00 | 0.37 | 0.00 | 85 | 1013.1 |
| 20260510035708 | 64 | 180 | 4.0 | 8.0 | 0.00 | 0.37 | 0.00 | 85 | 1013.1 |
| 20260510035208 | 64 | 180 | 6.0 | 7.0 | 0.00 | 0.37 | 0.00 | 85 | 1013.1 |
| 20260510034708 | 63 | 203 | 3.0 | 4.0 | 0.00 | 0.37 | 0.00 | 85 | 1013.0 |
| 20260510034208 | 63 | 225 | 2.0 | 4.0 | 0.00 | 0.37 | 0.00 | 86 | 1012.9 |
| 20260510033708 | 63 | 225 | 2.0 | 4.0 | 0.00 | 0.37 | 0.00 | 86 | 1013.1 |
| 20260510033208 | 63 | 270 | 2.0 | 2.0 | 0.00 | 0.37 | 0.00 | 85 | 1013.1 |
| 20260510032708 | 63 | 225 | 0.0 | 2.0 | 0.00 | 0.37 | 0.00 | 85 | 1013.1 |
| 20260510032208 | 64 | 338 | 0.0 | 2.0 | 0.00 | 0.37 | 0.00 | 85 | 1012.9 |
| 20260510031708 | 64 | 0 | 0.0 | 4.0 | 0.00 | 0.37 | 0.00 | 84 | 1013.1 |
| 20260510031208 | 64 | 45 | 1.0 | 8.0 | 0.00 | 0.37 | 0.00 | 84 | 1013.1 |
| 20260510030708 | 64 | 270 | 0.0 | 8.0 | 0.00 | 0.37 | 0.00 | 84 | 1012.9 |
| 20260510030208 | 64 | 203 | 2.0 | 8.0 | 0.00 | 0.37 | 0.00 | 84 | 1012.8 |
| 20260510025208 | 64 | 248 | 4.0 | 6.0 | 0.00 | 0.37 | 0.00 | 84 | 1012.9 |
| 20260510024708 | 64 | 203 | 3.0 | 4.0 | 0.00 | 0.37 | 0.00 | 84 | 1012.9 |
| 20260510024208 | 64 | 180 | 4.0 | 6.0 | 0.00 | 0.37 | 0.00 | 85 | 1012.8 |
| 20260510023208 | 64 | 225 | 2.0 | 8.0 | 0.00 | 0.37 | 0.00 | 84 | 1013.0 |
| 20260510022208 | 64 | 270 | 3.0 | 11.0 | 0.00 | 0.37 | 0.00 | 84 | 1013.0 |
| 20260510021708 | 64 | 248 | 3.0 | 11.0 | 0.00 | 0.37 | 0.00 | 84 | 1012.8 |
| 20260510021208 | 64 | 203 | 5.0 | 8.0 | 0.00 | 0.37 | 0.00 | 84 | 1012.7 |
| 20260510020708 | 64 | 225 | 4.0 | 11.0 | 0.00 | 0.37 | 0.00 | 85 | 1012.8 |
| 20260510020207 | 64 | 225 | 4.0 | 11.0 | 0.00 | 0.37 | 0.00 | 85 | 1012.8 |
| 20260510015708 | 64 | 203 | 6.0 | 11.0 | 0.00 | 0.37 | 0.00 | 85 | 1012.8 |
| 20260510014708 | 64 | 225 | 4.0 | 15.0 | 0.00 | 0.37 | 0.00 | 85 | 1012.6 |
| 20260510014208 | 64 | 248 | 5.0 | 15.0 | 0.00 | 0.37 | 0.00 | 85 | 1012.8 |
| 20260510013708 | 64 | 248 | 8.0 | 15.0 | 0.00 | 0.37 | 0.00 | 85 | 1012.8 |
| 20260510013208 | 64 | 248 | 8.0 | 9.0 | 0.00 | 0.37 | 0.00 | 85 | 1012.7 |
| 20260510012708 | 64 | 293 | 5.0 | 9.0 | 0.00 | 0.37 | 0.00 | 85 | 1012.7 |
| 20260510012208 | 64 | 248 | 8.0 | 7.0 | 0.00 | 0.37 | 0.00 | 86 | 1012.6 |
| 20260510011708 | 63 | 293 | 3.0 | 8.0 | 0.00 | 0.37 | 0.00 | 86 | 1012.8 |
| 20260510011208 | 63 | 203 | 2.0 | 9.0 | 0.00 | 0.37 | 0.00 | 86 | 1012.9 |
| 20260510010708 | 64 | 248 | 2.0 | 11.0 | 0.00 | 0.37 | 0.00 | 86 | 1012.8 |
| 20260510010208 | 64 | 248 | 4.0 | 11.0 | 0.00 | 0.37 | 0.00 | 86 | 1012.7 |
| 20260510005708 | 64 | 248 | 4.0 | 11.0 | 0.00 | 0.37 | 0.00 | 86 | 1012.8 |
| 20260510005208 | 64 | 248 | 5.0 | 9.0 | 0.00 | 0.37 | 0.00 | 86 | 1012.7 |
| 20260510004708 | 64 | 225 | 5.0 | 9.0 | 0.00 | 0.37 | 0.00 | 86 | 1012.7 |
| 20260510004208 | 64 | 225 | 4.0 | 9.0 | 0.00 | 0.37 | 0.00 | 85 | 1012.8 |
| 20260510003208 | 64 | 225 | 4.0 | 9.0 | 0.00 | 0.37 | 0.00 | 85 | 1012.8 |
| 20260510002708 | 64 | 248 | 4.0 | 9.0 | 0.00 | 0.37 | 0.00 | 85 | 1012.9 |
| 20260510002208 | 64 | 248 | 4.0 | 9.0 | 0.00 | 0.37 | 0.00 | 85 | 1012.6 |
| 20260510001708 | 64 | 225 | 6.0 | 8.0 | 0.00 | 0.37 | 0.00 | 85 | 1013.0 |
| 20260510000708 | 64 | 248 | 4.0 | 8.0 | 0.00 | 0.37 | 0.00 | 84 | 1013.0 |
| 20260510000208 | 64 | 203 | 2.0 | 8.0 | 0.00 | 0.37 | 0.00 | 84 | 1012.9 |
| 20260509235708 | 64 | 248 | 4.0 | 8.0 | 0.00 | 0.37 | 0.00 | 83 | 1012.8 |
| 20260509235208 | 64 | 225 | 6.0 | 8.0 | 0.00 | 0.37 | 0.00 | 83 | 1013.1 |
| 20260509234708 | 64 | 225 | 5.0 | 13.0 | 0.00 | 0.37 | 0.00 | 83 | 1013.1 |
| 20260509234208 | 64 | 248 | 4.0 | 13.0 | 0.00 | 0.37 | 0.00 | 83 | 1012.9 |
| 20260509233707 | 64 | 225 | 4.0 | 13.0 | 0.00 | 0.37 | 0.00 | 84 | 1013.3 |
| 20260509233208 | 64 | 203 | 4.0 | 11.0 | 0.00 | 0.37 | 0.00 | 84 | 1013.3 |
| 20260509232208 | 64 | 225 | 2.0 | 11.0 | 0.00 | 0.37 | 0.00 | 84 | 1013.4 |
| 20260509231708 | 64 | 203 | 5.0 | 11.0 | 0.00 | 0.37 | 0.00 | 84 | 1013.4 |
| 20260509231208 | 64 | 225 | 6.0 | 11.0 | 0.00 | 0.37 | 0.00 | 84 | 1013.3 |
| 20260509230707 | 64 | 203 | 6.0 | 11.0 | 0.00 | 0.37 | 0.00 | 83 | 1013.4 |
| 20260509225708 | 64 | 203 | 5.0 | 11.0 | 0.00 | 0.37 | 0.00 | 85 | 1013.1 |
| 20260509225208 | 64 | 225 | 4.0 | 11.0 | 0.00 | 0.37 | 0.00 | 85 | 1013.4 |
| 20260509224708 | 64 | 203 | 5.0 | 11.0 | 0.00 | 0.37 | 0.00 | 86 | 1013.2 |
| 20260509224208 | 64 | 225 | 4.0 | 11.0 | 0.00 | 0.37 | 0.00 | 86 | 1013.3 |